STARLINK-32402, 61708

Orbit data source: Space-Track

STARLINK-32402, 61708 is a payload satellite owned by SpaceX/Seattle (US) in LEO that was launched on Wed, 30 Oct 2024 UTC via an FALCON 9 launch vehicle from the Air Force Eastern Test Range (AFETR). Payload-class satellites include a variety of spacecraft equipped with specific instruments for various scientific and technological missions. These include communications satellites like Starlink; space stations such as the ISS; scientific satellites like the Hubble; Earth observation satellites from companies like Planet Labs, Umbra, and HawkEye 360; GPS; miniature CubeSats for education and research; and military/defense satellites.

Loading next visibility...
Identifier
61708, 2024-196B
Orbit
LEO
Country
Flag of USUS
Related business
Manufacturer
SpaceX/Seattle
Mission
Operational Commercial Communications
Bus & Motor
STARLINK V2M, Unknown motor
Mass
730 kg wet, ~700 kg dry
Launch date (UTC)
2024-10-30 (10 months ago)
Launch vehicle
FALCON 9
Launch site
Air Force Eastern Test Range (AFETR)
Object type
Payload
Rocket body
Debris
Shape & HBR
Box + 2 Pan, 14.5 m
Radar Cross Section
36.964 m², Large (>1 m²)

Expand to show TLE details & history
Last TLE update: 1 day ago

TLE from 1 day ago
0 STARLINK-32402
1 61708U 24196B   25241.38195059  .00003891  00000-0  14340-3 0  9994
2 61708  53.1590 274.5743 0001151  72.2213 287.8913 15.30208989 47716
Epoch: 2025-08-29T09:10Z
TLE epoch observation values (Epoch: 2025-08-29T09:10:00.53Z)
Latitude
-0.00007°
Longitude
159.24063°
Altitude
475.846 km
Speed
7.629 km/s
True Right ascension
18h 18m 17s
True Declination
0° 00' 00"
Sunlit
Object was in full shadow at epoch
Visualization orbit readout
Latitude
Unknown
Longitude
Unknown
Altitude
Unknown
Speed
Unknown
Apparent Right ascension
Unknown
Apparent Declination
Unknown
Sunlit
N/A
Visualization observer readout
Local Sidereal Time
09:19:55
Azimuth
Unknown
Elevation
Unknown
Doppler factor
Unknown
Orbital elements
Apogee altitude
476.234 km
Perigee altitude
474.656 km
Semi-major axis
6,853.582 km
Eccentricity
0.00012
Inclination
53.159°
RAAN
274.5743°
Arg. of periapsis
72.2213°
True anomaly
287.87875°
Mean anomaly
287.8913°
Eccentric anomaly
287.88502°
Mean motion
3.82531 °/min
Orbital period
94.11 mins
BSTAR
0.0001434
Loading maneuver chart data...
Computing Atmospheric mass density...
Loading historical data...
Loading historical data...
Loading historical data...
Loading historical data...
Loading historical data...
Loading historical data...
Loading historical data...

Documentation

Showing up to 5 results
|